[[[{"header":{"parameterUnit":"kt","parameterCategory":2,"dx":1,"dy":1,"la1":30.253999710083008,"la2":30.299108505249023,"lo1":-89.0895004272461,"lo2":-89.04439544677734,"nx":28,"ny":28,"refTime":"2022-10-21T21:00:00:Z","depth":0,"parameterNumber":1,"parameterNumberName":"U-component_of_WINDS"},"data":[-1.2407,-1.2481,-1.2516,-1.2619,-1.2668,-1.2745,-1.2785,-1.2839,-1.2893,-1.2991,-1.3054,-1.3099,-1.3168,-1.3255,-1.3327,-1.3346,-1.3375,-1.3376,-1.3399,-1.3358,-1.3355,-1.3352,-1.3336,-1.3381,-1.3382,-1.3436,-1.3437,-1.3437,-1.2377,-1.2425,-1.2489,-1.2575,-1.2631,-1.2651,-1.2722,-1.2768,-1.2837,-1.2903,-1.2966,-1.3057,-1.3133,-1.3204,-1.3284,-1.3323,-1.3339,-1.3343,-1.3342,-1.3353,-1.331,-1.3293,-1.3329,-1.3329,-1.3329,-1.3329,-1.3329,-1.3329,-1.2332,-1.2375,-1.2447,-1.2517,-1.2569,-1.2627,-1.2676,-1.2728,-1.2793,-1.2879,-1.2909,-1.2989,-1.3063,-1.3178,-1.3226,-1.3291,-1.3294,-1.331,-1.3315,-1.3319,-1.3318,-1.3238,-1.3306,-1.3306,-1.3307,-1.3307,-1.3307,0,-1.2311,-1.2337,-1.24,-1.2473,-1.2526,-1.2587,-1.265,-1.2681,-1.275,-1.28,-1.2877,-1.2928,-1.3029,-1.3107,-1.319,-1.3238,-1.3266,-1.3272,-1.3285,-1.3272,-1.325,-1.3265,-1.3196,-1.327,-1.327,-1.327,-1.327,-1.327,-1.227,-1.2315,-1.2407,-1.2446,-1.2489,-1.2552,-1.2598,-1.2655,-1.2701,-1.2788,-1.2824,-1.2902,-1.2967,-1.3086,-1.315,-1.3227,-1.3242,-1.3267,-1.3253,-1.3239,-1.3245,-1.3242,-1.3249,-1.3268,-1.3268,-1.3269,-1.3269,0,-1.2244,-1.23,-1.2382,-1.2468,-1.2492,-1.2537,-1.2612,-1.2659,-1.2705,-1.2776,-1.2796,-1.287,-1.2945,-1.3005,-1.3103,-1.3133,-1.3214,-1.3225,-1.3189,-1.3196,-1.3226,-1.3223,-1.3309,-1.3324,-1.3276,-1.3276,-1.3276,0,-1.2233,-1.229,-1.2371,-1.2415,-1.2481,-1.2536,-1.2602,-1.2648,-1.271,-1.2767,-1.2807,-1.2859,-1.2927,-1.2989,-1.3032,-1.3109,-1.3127,-1.3155,-1.3166,-1.3152,-1.3149,-1.318,-1.3178,-1.3187,-1.3186,-1.3186,-1.3185,0,-1.2188,-1.2297,-1.2369,-1.2403,-1.2501,-1.2534,-1.2577,-1.2647,-1.2692,-1.2759,-1.2789,-1.2864,-1.2905,-1.2963,-1.3018,-1.3007,-1.3113,-1.3109,-1.3141,-1.314,-1.3162,-1.3161,-1.322,-1.3185,-1.3185,-1.3184,-1.3184,0,-1.2187,-1.2251,-1.2345,-1.2429,-1.2455,-1.2503,-1.2579,-1.2633,-1.2705,-1.2735,-1.2788,-1.2822,-1.2892,-1.2885,-1.2983,-1.2953,-1.2993,-1.3025,-1.3029,-1.304,-1.303,-1.3058,-1.3107,-1.3116,-1.3049,-1.3048,-1.3047,0,-1.2122,-1.2231,-1.2279,-1.2368,-1.2427,-1.2468,-1.2522,-1.2583,-1.2627,-1.2686,-1.2735,-1.2802,-1.2808,-1.2837,-1.2878,-1.2932,-1.2971,-1.2929,-1.3017,-1.302,-1.2998,-1.3044,-1.3037,-1.3089,-1.3034,-1.3035,-1.3036,0,-1.2078,-1.2194,-1.2206,-1.2248,-1.2335,-1.2385,-1.2447,-1.2523,-1.256,-1.2623,-1.2679,-1.2772,-1.2782,-1.2829,-1.2865,-1.2904,-1.2947,-1.2909,-1.2912,-1.2916,-1.3031,-1.3024,-1.3033,-1.2962,-1.2964,-1.2966,-1.3025,0,-1.2068,-1.2129,-1.2164,-1.2252,-1.2299,-1.2358,-1.2418,-1.246,-1.2489,-1.2533,-1.2614,-1.268,-1.276,-1.2784,-1.2813,-1.2882,-1.288,-1.2889,-1.2887,-1.2916,-1.2937,-1.2946,-1.2851,-1.2851,-1.2851,-1.2851,0,0,-1.1993,-1.2081,-1.213,-1.219,-1.2233,-1.2274,-1.2331,-1.2378,-1.2471,-1.2501,-1.2499,-1.2641,-1.2694,-1.2787,-1.28,-1.2831,-1.2851,-1.2837,-1.2901,-1.2907,-1.2912,-1.2933,-1.2941,-1.2852,-1.2852,-1.2852,-1.2852,0,-1.2002,-1.2051,-1.2105,-1.2155,-1.223,-1.2274,-1.2287,-1.237,-1.2401,-1.2479,-1.2513,-1.2569,-1.2678,-1.2732,-1.2773,-1.2828,-1.2851,-1.2847,-1.2856,-1.2902,-1.2906,-1.2911,-1.2933,-1.294,-1.2853,-1.2853,-1.2853,0,-1.1971,-1.203,-1.2061,-1.2158,-1.2208,-1.2267,-1.2279,-1.2341,-1.2386,-1.2428,-1.2505,-1.255,-1.2626,-1.2703,-1.2741,-1.2741,-1.2848,-1.2824,-1.2824,-1.283,-1.2877,-1.2883,-1.2888,-1.282,-1.282,-1.2819,0,0,-1.197,-1.2026,-1.2107,-1.2164,-1.2193,-1.2258,-1.2296,-1.2328,-1.2393,-1.2418,-1.2476,-1.254,-1.2605,-1.2647,-1.2711,-1.2787,-1.2809,-1.2818,-1.2819,-1.282,-1.2827,-1.2874,-1.2879,-1.2818,-1.2818,-1.2818,0,0,-1.1971,-1.2066,-1.2083,-1.2156,-1.2215,-1.2301,-1.2334,-1.2357,-1.242,-1.242,-1.2479,-1.2499,-1.2572,-1.2615,-1.2589,-1.2712,-1.2708,-1.2716,-1.2681,-1.2684,-1.2686,-1.2674,-1.2612,0,0,0,0,0,-1.201,-1.2054,-1.2068,-1.2089,-1.2211,-1.2292,-1.2309,-1.2357,-1.2354,-1.238,-1.2432,-1.2453,-1.2614,-1.2592,-1.2613,-1.2642,-1.28,-1.2803,-1.2806,-1.278,-1.2782,-1.2784,0,0,0,0,0,0,-1.2018,-1.2044,-1.2067,-1.2153,-1.2181,-1.2291,-1.2297,-1.2311,-1.2352,-1.2355,-1.2442,-1.2456,-1.25,-1.2585,-1.2603,-1.2629,-1.2606,-1.2801,-1.2804,-1.2806,-1.2781,-1.2783,-1.2784,0,0,0,0,0,-1.2025,-1.2046,-1.2229,-1.2153,-1.2177,-1.2252,-1.2295,-1.2308,-1.234,-1.242,-1.2435,-1.2373,-1.2499,-1.2518,-1.2596,-1.2619,-1.2594,-1.26,-1.2803,-1.2805,-1.2807,-1.2782,0,0,0,0,0,0,-1.2031,-1.2059,-1.2235,-1.2244,-1.2139,-1.2247,-1.2265,-1.2304,-1.2404,-1.2418,-1.2353,-1.2355,-1.2499,-1.2514,-1.2528,-1.2613,-1.2583,-1.259,-1.2594,-1.2805,-1.2806,-1.2808,0,0,0,0,0,0,-1.2048,-1.2066,-1.224,-1.2219,-1.2227,-1.2242,-1.2258,-1.2331,-1.2405,-1.2332,-1.2336,-1.2353,-1.2479,-1.2511,-1.2523,-1.2634,-1.2576,-1.2582,-1.2587,-1.259,-1.2806,-1.2807,0,0,0,0,0,0,-1.2057,-1.2072,-1.2217,-1.2223,-1.2229,-1.2338,-1.2307,-1.243,-1.2385,-1.2327,-1.2383,-1.2382,-1.2475,-1.2488,-1.2518,-1.2625,-1.2632,-1.2576,-1.258,-1.2583,-1.2586,0,0,0,0,0,0,0,-1.2064,-1.1946,-1.2179,-1.2226,-1.2231,-1.233,-1.2333,-1.2335,-1.2385,-1.2384,-1.2383,-1.2382,-1.2539,-1.2546,-1.2553,-1.2618,0,0,-1.2575,-1.2578,0,0,0,0,0,0,0,0,-1.1941,-1.1945,-1.2179,-1.2181,-1.2183,-1.2331,-1.2333,-1.2335,-1.2385,-1.2384,-1.2383,-1.2382,-1.2541,-1.2546,-1.2552,0,0,0,0,0,0,0,0,0,0,0,0,0,0,0,-1.218,-1.2181,0,-1.2331,-1.2333,-1.2334,-1.2385,-1.2384,-1.2383,-1.2383,-1.2542,-1.2547,-1.2552,0,0,0,0,0,0,0,0,0,0,0,0,0,0,0,0,0,0,0,0,0,0,0,0,0,0,0,0,0,0,0,0,0,0,0,0,0,0,0,0,0,0,0,0,0,0,0,0,0,0,0,0,0,0,0,0,0,0,0,0,0,0,0,0,0,0,0,0,0]}],[{"header":{"parameterUnit":"kt","parameterCategory":2,"dx":1,"dy":1,"la1":30.253999710083008,"la2":30.299108505249023,"lo1":-89.0895004272461,"lo2":-89.04439544677734,"nx":28,"ny":28,"refTime":"2022-10-21T21:00:00:Z","depth":0,"parameterNumber":2,"parameterNumberName":"V-component_of_WINDS"},"data":[9.9026,9.9108,9.9086,9.917,9.9164,9.9217,9.9229,9.9242,9.9247,9.9307,9.9338,9.9326,9.9323,9.9354,9.9386,9.938,9.9392,9.9436,9.942,9.9246,9.9221,9.9196,9.9172,9.9441,9.9441,9.96,9.9602,9.9603,9.8893,9.8888,9.8928,9.8951,9.8983,9.8928,9.8942,9.8972,9.9022,9.903,9.9061,9.9113,9.9152,9.9134,9.9167,9.9204,9.9178,9.9214,9.9207,9.9207,9.9022,9.8997,9.9233,9.9233,9.9233,9.9233,9.9233,9.9233,9.8645,9.8696,9.8697,9.874,9.8747,9.8763,9.8808,9.8791,9.883,9.8863,9.8832,9.8887,9.8892,9.8923,9.8929,9.8971,9.8928,9.8959,9.8966,9.8973,9.8981,9.8744,9.8977,9.8976,9.8976,9.8975,9.8974,0,9.8454,9.8432,9.847,9.8501,9.8531,9.8554,9.8571,9.8599,9.8547,9.8582,9.8629,9.8653,9.8701,9.8743,9.8771,9.877,9.8713,9.8709,9.8729,9.874,9.8746,9.8737,9.843,9.8701,9.8698,9.8696,9.8695,9.8694,9.8196,9.8262,9.8255,9.8284,9.8288,9.8338,9.8362,9.8312,9.834,9.8354,9.8403,9.8446,9.8476,9.8558,9.8538,9.8574,9.8546,9.865,9.8551,9.8559,9.8539,9.8533,9.8536,9.8668,9.8672,9.8674,9.8677,0,9.8051,9.8017,9.8113,9.81,9.8099,9.817,9.8158,9.821,9.8189,9.8256,9.8269,9.8236,9.8284,9.8247,9.8297,9.8276,9.8386,9.8362,9.8382,9.8373,9.8458,9.8448,9.8753,9.8787,9.8516,9.8518,9.8521,0,9.7815,9.7905,9.7847,9.7905,9.8002,9.7949,9.8046,9.8037,9.8041,9.8093,9.8026,9.8076,9.8022,9.8067,9.8036,9.8121,9.8133,9.8119,9.8108,9.8122,9.8122,9.8131,9.8115,9.8091,9.809,9.8089,9.8087,0,9.7587,9.7665,9.7759,9.7771,9.7768,9.7813,9.7814,9.7819,9.7845,9.7873,9.7887,9.7926,9.7945,9.7974,9.7933,9.7866,9.8039,9.7938,9.8024,9.8025,9.806,9.8057,9.8341,9.8085,9.8085,9.8084,9.8084,0,9.7389,9.7419,9.7564,9.7557,9.7579,9.7644,9.7674,9.7721,9.7732,9.7716,9.7738,9.7687,9.7763,9.7665,9.7767,9.769,9.7713,9.7708,9.7714,9.7713,9.7602,9.7759,9.8039,9.8063,9.7718,9.7715,9.7713,0,9.7133,9.7272,9.7226,9.7366,9.7424,9.734,9.741,9.7423,9.7407,9.7453,9.7436,9.749,9.741,9.7421,9.7478,9.7461,9.7562,9.7448,9.7508,9.751,9.75,9.7759,9.7806,9.7983,9.7673,9.7678,9.768,0,9.693,9.6927,9.6956,9.6965,9.6974,9.7024,9.7107,9.7149,9.718,9.7206,9.7269,9.7349,9.7288,9.7309,9.7272,9.7333,9.7492,9.726,9.726,9.7298,9.7653,9.7696,9.7727,9.7453,9.7458,9.7462,9.7649,0,9.6625,9.6693,9.6771,9.68,9.6833,9.6922,9.6882,9.6922,9.6881,9.6863,9.6961,9.6964,9.7007,9.7035,9.6998,9.7151,9.7118,9.7055,9.6952,9.7125,9.7185,9.721,9.6865,9.6862,9.6859,9.6857,0,0,9.6385,9.6481,9.6431,9.6509,9.6533,9.6446,9.6542,9.6557,9.6588,9.6606,9.6549,9.666,9.6666,9.6788,9.6839,9.686,9.6881,9.6823,9.7044,9.7066,9.7085,9.715,9.7177,9.6852,9.6851,9.685,9.6849,0,9.6264,9.6274,9.6373,9.6385,9.6401,9.6377,9.6401,9.6402,9.6394,9.6493,9.6417,9.6472,9.6566,9.6578,9.6597,9.6809,9.6747,9.6827,9.6951,9.7019,9.7044,9.7065,9.7134,9.7161,9.6843,9.6843,9.6843,0,9.6051,9.6052,9.6097,9.6153,9.6163,9.6228,9.611,9.6186,9.6232,9.6133,9.6231,9.6228,9.6244,9.6368,9.6423,9.6372,9.6627,9.6543,9.6559,9.6562,9.6626,9.6656,9.6682,9.6331,9.6329,9.6328,0,0,9.5952,9.6017,9.6002,9.6124,9.6135,9.6103,9.6135,9.6097,9.6114,9.6121,9.6115,9.6134,9.6185,9.6222,9.627,9.6413,9.6409,9.6481,9.6505,9.6525,9.654,9.6608,9.6638,9.6321,9.6321,9.6321,0,0,9.5904,9.5892,9.5848,9.5985,9.6004,9.5997,9.6072,9.6018,9.6058,9.6042,9.5984,9.5986,9.6102,9.6102,9.6024,9.6231,9.6131,9.6149,9.6226,9.6256,9.6279,9.6274,9.5902,0,0,0,0,0,9.576,9.5893,9.5853,9.5871,9.5942,9.6019,9.6027,9.5982,9.591,9.597,9.5956,9.589,9.6047,9.5976,9.5993,9.608,9.6242,9.6256,9.6269,9.6401,9.6433,9.646,0,0,0,0,0,0,9.5766,9.5787,9.585,9.585,9.5865,9.6014,9.5882,9.5873,9.5902,9.5888,9.5894,9.589,9.5852,9.5964,9.598,9.6063,9.5897,9.6247,9.6259,9.627,9.6412,9.6438,9.6461,0,0,0,0,0,9.5771,9.5788,9.5915,9.5847,9.5861,9.5831,9.5876,9.5868,9.589,9.5869,9.5862,9.5852,9.5856,9.5866,9.5973,9.6057,9.5885,9.5891,9.6255,9.6264,9.6273,9.6425,0,0,0,0,0,0,9.5774,9.578,9.5917,9.5919,9.5794,9.5822,9.5825,9.5864,9.5868,9.5863,9.5823,9.5812,9.586,9.5867,9.5876,9.6057,9.5875,9.5882,9.5886,9.6262,9.627,9.6276,0,0,0,0,0,0,9.5771,9.5783,9.5918,9.5853,9.5847,9.5813,9.5816,9.5901,9.5869,9.5821,9.5812,9.5818,9.5847,9.5869,9.5875,9.601,9.5868,9.5874,9.5878,9.5881,9.6268,9.6274,0,0,0,0,0,0,9.5775,9.5785,9.5852,9.5848,9.5843,9.5865,9.5888,9.5963,9.5814,9.5823,9.5799,9.5793,9.585,9.5856,9.5875,9.6008,9.601,9.5868,9.5872,9.5875,9.5877,0,0,0,0,0,0,0,9.5778,9.572,9.5903,9.5844,9.5839,9.594,9.5941,9.5942,9.5813,9.5807,9.5801,9.5795,9.5833,9.584,9.5846,9.6006,0,0,9.5868,9.5871,0,0,0,0,0,0,0,0,9.5714,9.5718,9.5903,9.5904,9.5904,9.594,9.5941,9.5941,9.5812,9.5807,9.5802,9.5798,9.5835,9.584,9.5846,0,0,0,0,0,0,0,0,0,0,0,0,0,0,0,9.5903,9.5904,0,9.5941,9.5941,9.5941,9.5811,9.5807,9.5803,9.5799,9.5836,9.5841,9.5845,0,0,0,0,0,0,0,0,0,0,0,0,0,0,0,0,0,0,0,0,0,0,0,0,0,0,0,0,0,0,0,0,0,0,0,0,0,0,0,0,0,0,0,0,0,0,0,0,0,0,0,0,0,0,0,0,0,0,0,0,0,0,0,0,0,0,0,0,0]}]]]